Temperature
20 20 20 20 19 19 19 18 18 18 17 17 17 17 16 16 16 16 16 15 15 15 15 15 15 15 15 15 15 16 16 16 16 16 15 15 15 15 15 15 15 15 15
20 20 20 20 19 19 19 18 18 18 17 17 17 17 16 16 16 16 16 15 15 15 15 15 15 15 15 15 15 16 16 16 16 16 15 15 15 15 15 15 15 15 15
20 20 20 20 19 19 19 18 18 18 18 17 17 16 16 16 16 16 16 15 15 15 15 15 15 15 15 15 15 15 16 16 16 16 16 15 15 15 15 15 15 15 15
20 20 20 20 19 19 19 19 18 18 18 17 17 17 17 16 16 16 16 15 15 15 15 15 15 15 15 15 15 15 15 15 15 15 15 15 15 15 14 14 14 14 14
20 20 20 20 20 19 19 19 18 18 18 17 17 17 17 16 16 16 16 16 15 15 15 15 15 15 15 15 15 15 15 15 15 15 15 15 15 15 15 14 14 14 14
20 20 20 20 20 19 19 19 18 18 18 18 17 17 17 16 16 16 16 16 15 15 15 15 15 15 15 15 15 15 15 15 15 15 15 15 15 15 15 14 14 14 14
20 20 20 20 20 19 19 19 19 18 18 18 17 17 17 17 16 16 16 16 16 15 15 15 15 15 15 15 15 15 15 15 15 15 15 15 15 15 15 14 14 14 13
20 20 20 20 20 20 19 19 19 19 18 18 17 17 17 17 16 16 16 16 16 15 15 15 15 15 15 15 15 14 14 14 14 14 14 14 14 14 14 14 14 14 13
20 21 20 20 20 20 20 19 19 19 18 18 18 17 17 17 17 16 16 16 16 15 15 15 15 15 15 15 14 14 14 14 14 14 14 14 14 14 14 14 14 14 13
20 21 21 20 20 20 20 19 19 19 18 18 18 17 17 17 17 16 16 16 16 16 15 15 15 15 15 15 14 14 14 14 14 14 14 14 14 14 14 14 14 14 14
20 21 21 21 20 20 20 19 19 19 18 18 18 18 17 17 17 17 16 16 16 16 15 15 15 15 15 14 14 14 14 14 14 14 14 14 14 14 14 14 14 13 13
21 21 21 21 20 20 20 19 19 19 18 18 18 18 17 17 17 17 16 16 16 16 15 15 15 15 14 14 14 14 14 14 14 14 14 14 14 14 14 13 13 13 13
21 21 21 21 20 20 20 19 19 19 18 18 18 18 17 17 17 17 16 16 16 16 15 15 15 15 14 14 14 14 14 14 14 13 13 13 13 13 13 13 13 13 13
21 21 21 21 20 20 20 19 19 19 18 18 18 18 17 17 17 17 16 16 16 16 15 15 15 15 14 14 14 14 14 13 13 13 13 13 13 13 13 13 12 12 12
20 21 21 21 20 20 20 19 19 19 18 18 18 18 17 17 17 17 16 16 16 16 15 15 15 14 14 14 14 14 14 13 13 13 13 13 13 12 12 12 12 12 12
21 21 21 21 21 20 20 20 19 19 19 18 18 18 17 17 17 17 16 16 16 16 15 15 15 14 14 14 14 14 13 13 13 13 13 12 12 12 12 12 12 12 12
21 21 21 21 21 21 20 20 19 19 18 18 18 18 17 17 17 16 16 16 16 15 15 15 15 14 14 14 13 13 13 13 13 13 12 12 12 12 12 12 12 11 11
22 22 22 21 21 21 20 20 19 19 18 18 18 18 17 17 17 16 16 16 16 15 15 15 14 14 14 13 13 13 13 13 13 12 12 12 12 12 12 12 11 11 11
23 22 22 22 21 21 20 20 19 19 19 18 18 18 17 17 17 16 16 16 15 15 15 15 14 14 14 13 13 13 13 13 12 12 12 12 12 12 11 11 11 11 11
22 22 22 21 21 21 20 20 19 19 19 19 18 18 17 17 17 16 16 16 15 15 15 14 14 14 13 13 13 13 12 12 12 12 12 12 11 11 11 11 11 11 11
22 22 22 21 21 21 20 20 19 19 19 19 18 18 17 17 16 16 16 15 15 15 14 14 14 14 13 13 13 12 12 12 12 12 12 11 11 11 11 11 10 10 10
22 22 21 21 21 20 20 20 19 19 19 18 18 17 17 16 16 16 15 15 15 14 14 14 14 13 13 13 12 12 12 12 12 12 11 11 11 11 11 10 10 10 10
21 21 21 21 20 20 20 20 19 19 18 18 18 17 17 16 16 16 15 15 14 14 14 14 14 13 13 13 12 12 12 11 11 11 11 11 10 10 10 10 10 9 9
21 20 20 20 20 20 20 19 19 19 18 18 17 17 16 16 16 15 15 15 14 14 14 14 14 13 13 13 12 12 12 11 11 11 11 10 10 10 10 10 9 9 9
20 20 20 20 20 19 19 19 19 18 18 17 17 17 16 16 15 15 15 15 15 14 14 14 14 13 13 13 12 12 12 11 11 11 10 10 10 10 10 9 9 9 8
19 19 19 19 19 19 19 18 18 18 17 17 17 16 16 16 15 15 14 14 14 14 13 13 13 13 12 12 12 11 11 11 10 10 10 10 10 9 9 9 9 8 8
Wind_Speed
6 8 9 9 9 8 8 7 7 6 5 4 4 4 3 2 3 5 9 10 10 10 9 6 6 6 6 5 5 4 6 5 3 4 5 6 6 7 6 5 5 7 8
7 8 9 8 8 8 8 7 7 6 5 4 3 3 3 2 2 3 7 9 10 9 8 6 5 5 5 7 7 5 4 5 5 3 4 4 6 5 7 6 6 6 7
12 10 9 8 8 8 8 8 7 7 6 5 5 4 4 4 4 4 3 5 9 9 8 7 6 5 5 5 6 6 5 4 5 4 4 4 1 2 5 6 6 6 6
11 10 10 10 9 8 8 8 8 7 6 6 7 6 4 3 1 1 2 4 7 8 8 8 7 6 4 5 5 6 4 5 4 4 4 3 3 3 2 4 5 6 7
12 12 11 11 10 9 8 8 8 7 6 7 7 7 5 3 2 2 3 4 5 6 7 7 7 5 4 5 6 6 6 5 4 3 2 4 4 4 4 2 4 4 5
12 11 10 10 8 8 8 8 8 6 6 7 7 7 7 5 5 3 3 2 3 3 5 6 6 5 4 5 5 5 7 6 6 5 5 3 3 2 3 3 2 2 3
12 12 11 11 10 10 9 8 9 7 6 7 6 7 7 7 6 5 3 2 2 2 2 4 4 4 5 6 6 6 6 6 6 5 4 4 3 2 2 3 2 3 3
13 14 13 12 11 11 10 10 9 7 7 7 6 6 6 5 4 4 4 3 2 1 2 4 4 5 6 6 6 5 5 5 6 6 5 5 4 3 3 2 3 3 4
14 14 13 12 12 11 11 11 10 8 8 7 7 6 6 5 5 4 4 3 2 2 3 4 4 5 6 6 6 5 5 6 5 5 6 5 4 4 3 3 3 4 2
13 13 13 13 12 11 10 10 10 9 8 8 7 6 6 6 5 5 5 4 3 3 4 4 4 4 5 5 5 5 4 6 5 4 6 5 4 4 4 3 3 3 4
15 14 13 12 11 10 10 10 10 8 7 7 6 7 6 5 5 5 5 5 4 4 4 4 4 4 4 4 5 4 5 6 5 5 6 5 4 4 4 4 4 4 4
13 13 13 12 11 11 10 10 10 9 9 8 7 7 6 6 6 5 5 5 5 4 4 4 5 4 4 4 5 5 5 6 6 5 5 5 5 5 5 5 5 4 3
11 10 11 12 12 12 11 10 10 10 9 8 8 7 7 7 6 6 5 5 6 5 5 5 5 4 4 5 5 5 5 5 5 4 5 4 6 5 4 5 5 3 4
12 12 12 12 12 12 12 11 10 9 9 9 9 8 8 8 7 6 6 6 6 6 6 5 5 4 4 4 5 5 5 5 4 4 4 4 4 4 4 4 4 4 4
11 13 13 12 12 12 11 11 10 9 10 10 9 9 7 7 7 7 6 6 6 6 6 5 4 4 4 4 5 5 5 5 4 4 3 3 4 5 4 4 3 4 3
13 14 13 13 13 14 13 12 11 10 10 11 10 8 8 7 7 7 7 6 6 5 5 5 5 4 2 5 7 6 5 5 4 3 2 3 4 5 6 6 5 4 3
14 14 14 14 14 14 14 14 13 11 11 11 10 9 9 9 8 8 7 7 6 5 5 5 5 4 3 5 7 8 5 4 3 3 2 2 2 4 3 5 6 5 4
13 14 13 13 12 11 11 11 11 12 11 10 10 10 10 9 8 7 7 6 5 5 5 4 5 4 3 6 7 8 5 4 3 2 2 2 1 1 3 3 3 3 3
12 12 13 12 12 12 13 12 12 11 11 11 11 11 11 10 9 9 7 5 5 5 4 4 5 5 3 5 7 8 4 3 2 1 1 2 2 2 3 3 2 2 3
8 9 9 9 11 11 13 13 13 12 13 13 12 11 11 11 11 10 7 5 5 5 5 4 4 5 4 5 7 7 4 3 2 0 0 2 2 2 2 3 2 1 3
7 8 9 10 11 12 13 14 13 14 13 11 10 10 10 10 10 8 6 6 6 6 5 4 3 4 5 5 7 7 4 4 3 2 1 2 2 1 2 2 2 3 3
5 7 9 9 8 11 14 13 14 12 10 11 11 10 10 9 8 8 7 6 7 6 5 4 3 2 3 5 6 7 7 6 4 3 3 3 4 2 2 2 3 4 3
5 6 7 7 7 10 13 14 12 10 12 12 11 10 10 8 9 9 9 6 6 6 5 5 5 4 3 4 7 7 7 7 4 4 5 5 5 3 3 4 4 3 1
4 5 6 7 6 7 9 10 9 12 13 12 11 10 10 9 8 8 8 8 8 7 7 7 6 5 4 4 4 4 4 5 4 3 4 4 4 3 3 4 3 2 2
3 4 6 7 7 7 7 7 9 12 12 11 10 10 9 10 9 8 8 9 9 10 10 8 8 7 7 9 10 7 6 5 5 3 1 1 1 2 3 3 3 3 2
2 3 4 4 5 6 6 7 9 12 12 10 9 8 8 8 7 7 5 7 7 10 12 11 10 8 9 9 10 10 10 10 8 4 3 4 4 5 5 5 4 4 4
Wind_Direction
163 152 147 144 137 130 125 125 122 123 116 104 99 92 77 52 41 49 55 56 56 59 63 56 43 42 46 39 38 45 48 40 41 63 43 31 37 47 41 42 51 54 59
157 154 148 149 146 143 138 133 133 131 125 124 123 125 123 89 55 42 47 53 57 58 65 62 54 46 48 41 39 46 53 36 34 80 75 38 19 17 27 33 49 48 53
168 164 154 152 147 151 153 147 144 133 125 118 102 86 65 49 38 37 30 36 55 59 65 67 66 54 54 50 43 49 65 59 33 50 108 106 89 358 3 20 33 37 44
171 164 158 155 158 160 152 147 143 132 127 122 119 122 120 118 139 103 46 32 48 57 66 70 70 62 56 55 49 56 63 73 51 32 46 91 135 116 39 3 14 33 40
171 168 165 162 159 153 147 146 138 134 132 126 130 126 122 130 117 85 65 43 34 48 63 72 70 63 58 60 57 57 60 66 71 59 56 60 56 66 105 61 5 20 20
171 166 164 153 150 145 142 142 140 139 136 130 132 134 134 130 118 107 92 56 33 30 48 67 69 69 66 64 63 63 64 65 69 64 61 74 79 71 89 100 53 34 4
169 164 161 159 157 154 152 151 149 149 146 134 137 143 142 140 143 146 136 119 74 50 38 64 70 69 71 74 74 68 63 62 67 65 62 63 70 99 108 107 89 52 9
172 171 170 169 167 164 159 156 157 157 154 146 147 147 143 140 143 148 145 145 147 147 93 84 87 82 78 78 77 71 67 67 67 66 64 60 47 62 87 118 119 73 25
176 174 173 173 172 170 169 166 162 160 160 156 150 148 148 143 143 142 134 137 142 131 105 96 87 82 80 81 82 75 68 69 64 65 65 60 45 48 55 76 114 127 94
178 177 177 178 178 176 170 165 164 167 166 162 161 159 155 150 145 131 129 132 135 112 110 96 86 79 79 83 82 78 74 72 58 63 67 57 45 49 50 60 69 95 127
182 180 181 180 176 170 165 167 169 166 166 165 163 157 154 147 138 135 138 134 125 120 121 112 100 91 85 87 88 82 81 75 62 59 68 59 52 57 47 55 64 69 97
182 179 176 171 172 174 173 173 173 171 172 166 160 160 155 144 139 139 137 131 127 123 119 111 103 97 93 93 96 93 86 86 80 71 69 56 63 54 47 57 61 64 80
176 173 172 174 177 178 177 175 175 174 169 160 157 156 156 153 152 149 142 133 130 124 113 110 109 104 101 98 100 104 99 95 95 92 86 73 74 65 57 62 62 56 62
177 176 179 181 181 179 178 176 176 171 166 161 160 162 167 165 161 153 145 141 136 129 122 117 116 114 108 106 105 106 102 95 87 85 88 87 90 98 88 77 71 72 63
180 181 184 186 183 179 178 177 176 172 167 164 166 174 169 158 152 148 145 139 135 136 131 119 111 111 116 123 120 113 110 103 85 72 73 79 90 95 104 100 94 85 74
189 188 188 186 186 185 182 179 178 176 168 171 175 169 159 155 155 153 145 136 131 131 127 127 127 120 121 128 129 124 115 115 110 95 69 56 68 78 84 90 91 97 100
191 191 192 192 192 190 184 182 180 172 171 174 172 168 165 162 162 157 146 144 144 138 132 133 129 130 145 138 130 125 121 118 123 126 116 86 77 83 83 68 60 51 58
192 193 192 192 191 184 178 174 168 170 173 173 173 172 166 164 160 156 157 155 149 147 148 149 148 143 156 140 129 122 109 111 118 137 149 141 134 136 119 89 51 22 4
192 193 191 186 181 179 174 167 170 172 173 177 178 175 169 165 163 167 169 162 152 152 155 156 154 152 168 155 141 128 118 114 114 138 147 151 160 183 136 110 74 356 330
186 184 176 167 174 178 168 168 174 176 185 185 181 175 171 170 173 174 169 161 156 160 157 157 164 166 178 179 162 146 135 135 141 119 234 184 186 202 162 146 152 290 296
174 169 164 173 181 172 166 173 178 190 191 177 168 168 171 173 172 166 161 156 154 152 157 163 175 177 184 187 178 168 158 168 171 186 228 252 235 212 195 183 200 245 269
154 161 166 176 174 168 170 178 190 190 168 161 165 169 170 173 168 160 161 160 157 159 168 171 190 214 207 199 198 190 187 180 176 203 220 240 251 251 253 246 260 275 297
153 158 165 167 167 173 176 185 191 167 160 164 170 172 171 172 165 167 169 165 168 174 185 186 200 221 224 222 212 202 198 194 196 219 226 232 244 256 270 279 282 289 275
148 152 153 161 176 181 184 189 172 162 164 171 174 172 173 174 173 176 178 179 185 189 194 199 208 216 220 223 219 216 218 213 219 233 248 250 250 247 260 281 289 265 235
155 151 164 177 187 183 183 173 163 161 165 171 174 176 179 180 184 188 193 194 201 197 196 205 203 202 219 226 212 204 213 214 216 205 218 242 257 263 271 273 268 260 258
149 151 163 174 183 175 175 171 166 166 167 172 178 182 182 183 185 188 203 222 213 213 211 208 203 215 222 219 212 215 219 218 207 185 211 230 235 241 247 253 261 259 253
Height
1552 1554 1556 1558 1559 1560 1562 1563 1564 1564 1565 1565 1565 1564 1564 1563 1563 1562 1561 1560 1559 1558 1557 1555 1554 1553 1552 1551 1551 1550 1550 1550 1551 1551 1552 1552 1552 1553 1553 1552 1552 1551 1550
1551 1553 1556 1557 1559 1560 1562 1563 1564 1565 1565 1565 1565 1565 1565 1565 1564 1563 1563 1562 1561 1560 1559 1557 1556 1555 1554 1554 1553 1552 1552 1552 1553 1553 1553 1554 1555 1555 1555 1554 1554 1553 1552
1550 1552 1554 1557 1559 1560 1561 1563 1564 1565 1566 1566 1566 1566 1566 1566 1565 1565 1564 1564 1563 1562 1561 1559 1558 1557 1556 1556 1555 1554 1554 1554 1554 1554 1555 1554 1555 1556 1557 1556 1556 1555 1555
1548 1551 1553 1555 1558 1560 1561 1563 1564 1565 1566 1566 1567 1567 1567 1566 1566 1566 1566 1565 1564 1563 1563 1562 1561 1560 1559 1558 1557 1557 1556 1556 1555 1555 1555 1556 1556 1557 1558 1559 1558 1558 1557
1546 1549 1551 1554 1557 1559 1561 1562 1564 1565 1566 1567 1567 1567 1567 1567 1567 1567 1567 1567 1566 1565 1564 1564 1563 1562 1561 1560 1559 1559 1558 1558 1557 1557 1557 1557 1557 1558 1558 1559 1560 1559 1559
1544 1547 1550 1553 1555 1558 1560 1562 1564 1565 1566 1567 1567 1567 1568 1568 1568 1568 1568 1568 1567 1567 1566 1565 1565 1564 1563 1562 1561 1561 1560 1560 1559 1559 1559 1559 1559 1559 1559 1560 1560 1560 1560
1541 1545 1548 1551 1554 1556 1559 1561 1563 1564 1566 1566 1567 1568 1568 1569 1569 1569 1569 1568 1568 1568 1567 1567 1566 1566 1565 1564 1564 1563 1562 1562 1561 1561 1561 1561 1561 1561 1561 1561 1561 1561 1561
1538 1541 1545 1548 1552 1554 1557 1559 1562 1563 1565 1566 1567 1568 1569 1569 1569 1569 1569 1569 1569 1569 1568 1568 1567 1567 1567 1566 1565 1565 1564 1564 1563 1563 1563 1562 1562 1562 1562 1562 1562 1562 1562
1535 1539 1542 1546 1550 1553 1555 1558 1560 1562 1564 1565 1567 1568 1569 1569 1570 1570 1570 1570 1570 1570 1570 1569 1569 1568 1568 1567 1567 1566 1566 1565 1565 1564 1564 1564 1563 1563 1563 1563 1563 1563 1562
1532 1536 1540 1544 1547 1551 1554 1557 1559 1561 1563 1564 1566 1567 1568 1569 1570 1570 1570 1570 1570 1570 1570 1570 1570 1569 1569 1568 1568 1568 1567 1567 1566 1566 1566 1565 1565 1564 1564 1564 1564 1564 1563
1529 1533 1537 1541 1545 1548 1552 1554 1557 1559 1561 1563 1565 1566 1568 1569 1569 1570 1570 1571 1571 1571 1571 1571 1570 1570 1570 1569 1569 1569 1568 1568 1567 1567 1567 1566 1566 1565 1565 1565 1564 1564 1564
1526 1530 1534 1538 1542 1546 1549 1552 1554 1557 1559 1562 1563 1565 1567 1568 1569 1570 1570 1570 1571 1571 1571 1571 1571 1570 1570 1570 1570 1570 1569 1569 1568 1568 1568 1567 1567 1566 1566 1565 1565 1565 1564
1524 1528 1532 1535 1539 1542 1546 1549 1552 1555 1557 1560 1562 1564 1565 1567 1568 1569 1570 1570 1570 1571 1571 1571 1571 1571 1571 1571 1570 1570 1570 1570 1569 1569 1568 1568 1567 1567 1566 1566 1566 1565 1565
1521 1524 1528 1532 1535 1539 1543 1546 1549 1552 1555 1558 1560 1562 1564 1565 1567 1568 1569 1569 1570 1570 1571 1571 1571 1571 1571 1571 1571 1571 1570 1570 1570 1569 1569 1568 1568 1567 1567 1566 1566 1565 1565
1518 1521 1524 1528 1532 1535 1539 1543 1546 1549 1552 1555 1557 1560 1562 1564 1565 1567 1567 1568 1569 1570 1570 1571 1571 1571 1571 1571 1571 1571 1570 1570 1570 1569 1569 1568 1568 1568 1567 1567 1566 1565 1564
1514 1518 1521 1525 1528 1531 1535 1539 1543 1546 1549 1552 1555 1558 1560 1562 1564 1565 1566 1567 1568 1568 1569 1570 1570 1570 1570 1570 1570 1570 1570 1570 1569 1569 1569 1568 1568 1567 1567 1566 1566 1565 1564
1511 1514 1517 1520 1524 1528 1531 1535 1539 1543 1546 1549 1552 1555 1557 1560 1561 1563 1564 1565 1566 1567 1567 1568 1569 1569 1569 1569 1569 1569 1569 1569 1569 1568 1568 1568 1567 1567 1566 1565 1565 1564 1563
1507 1510 1513 1517 1521 1525 1529 1533 1537 1540 1543 1546 1549 1552 1554 1557 1559 1561 1562 1563 1564 1565 1566 1566 1567 1567 1568 1568 1568 1568 1568 1568 1568 1567 1567 1566 1566 1566 1565 1564 1563 1562 1561
1504 1507 1510 1513 1518 1522 1526 1530 1533 1536 1539 1542 1545 1548 1551 1553 1556 1557 1559 1560 1562 1563 1563 1564 1565 1565 1566 1566 1566 1566 1566 1566 1566 1566 1565 1565 1564 1564 1563 1562 1561 1560 1559
1502 1505 1508 1511 1515 1518 1522 1526 1529 1532 1535 1538 1541 1545 1548 1550 1552 1554 1556 1558 1559 1560 1561 1562 1562 1563 1563 1564 1564 1564 1564 1564 1564 1564 1563 1563 1562 1562 1561 1560 1559 1558 1557
1500 1503 1505 1508 1511 1515 1519 1522 1525 1527 1531 1535 1539 1542 1544 1547 1549 1551 1553 1555 1556 1557 1558 1559 1560 1560 1561 1561 1561 1561 1561 1561 1561 1561 1561 1560 1560 1559 1559 1558 1557 1555 1554
1499 1501 1503 1506 1509 1512 1515 1518 1521 1524 1529 1532 1535 1538 1541 1544 1546 1548 1550 1552 1553 1554 1555 1556 1556 1557 1558 1558 1558 1559 1559 1559 1558 1558 1558 1558 1557 1557 1556 1555 1554 1553 1551
1498 1500 1502 1504 1507 1509 1512 1515 1518 1522 1525 1529 1532 1535 1538 1540 1542 1544 1546 1548 1549 1550 1551 1552 1553 1553 1554 1555 1555 1555 1555 1555 1555 1555 1555 1554 1554 1553 1552 1551 1550 1549 1548
1496 1498 1500 1503 1505 1507 1509 1512 1515 1519 1522 1525 1528 1531 1533 1536 1538 1540 1542 1543 1544 1546 1547 1548 1548 1549 1550 1551 1551 1551 1552 1552 1552 1551 1551 1551 1550 1549 1548 1547 1546 1545 1544
1496 1497 1498 1500 1502 1505 1507 1510 1512 1515 1518 1521 1524 1527 1529 1531 1534 1535 1537 1539 1540 1542 1543 1544 1545 1545 1545 1546 1547 1548 1547 1547 1547 1547 1546 1546 1545 1544 1543 1543 1542 1541 1539
1495 1496 1497 1499 1501 1503 1505 1507 1509 1512 1515 1517 1519 1522 1524 1527 1529 1531 1533 1535 1537 1538 1539 1540 1541 1541 1542 1543 1543 1543 1543 1543 1543 1542 1541 1540 1540 1539 1538 1537 1536 1535 1534